Regional Weather Roundup
Issued by NWS

Home | Current Version | Previous Version | Text Only | Print | Product List | Glossary Off
Versions: 1 2 3 4 5 6 7 8 9 10 11 12 13 14 15 16 17 18 19 20 21 22 23 24 25 26 27 28 29 30 31 32 33 34 35 36 37 38 39 40 41 42 43 44 45 46 47 48 49 50

000
ASUS43 KLSX 292307
RWRMO

WEATHER SUMMARY FOR MISSOURI
NATIONAL WEATHER SERVICE SPRINGFIELD MO
600 PM CDT WED MAR 29 2017

NOTE: "FAIR" INDICATES FEW OR NO CLOUDS BELOW 12,000 FEET WITH NO
       SIGNIFICANT WEATHER AND/OR OBSTRUCTIONS TO VISIBILITY.
       CURRENT SKY AND/OR WEATHER CONDITIONS ARE NOT AVAILABLE FOR
       CHILLICOTHE AND FARMINGTON.

MOZ001>031-035>038-043-044-053-054-300000-
...NORTHERN AND WESTERN MISSOURI...

CITY           SKY/WX    TMP DP  RH WIND       PRES   REMARKS
KANSAS CTY INT TSTM      54  53  97 NE10G30   29.70R
KANSAS C DTWN  TSTM      57  54  89 W8G18     29.68R VSB 1/2
LEE`S SUMMIT   PTSUNNY   60  58  92 E17G23    29.64F
ST JOSEPH      TSTM      52  51  97 E13G22    29.69F FOG
CHILLICOTHE      N/A     54  51  90 VRB6      29.76F
KIRKSVILLE     LGT RAIN  51  50  96 E16       29.82F FOG

$$
MOZ066>068-077>081-088>096-101>105-300000-
...SOUTHWEST MISSOURI...

CITY           SKY/WX    TMP DP  RH WIND       PRES   REMARKS
SPRINGFIELD    CLOUDY    71  57  61 S12       29.67F
JOPLIN         PTSUNNY   72  55  55 S16       29.63F
BRANSON        CLOUDY    72  59  64 S9        29.71F

$$
MOZ032>034-039>042-045>050-055>058-069>072-300000-
...CENTRAL MISSOURI...

CITY           SKY/WX    TMP DP  RH WIND       PRES   REMARKS
COLUMBIA       LGT RAIN  62  57  83 E10       29.74F
JEFFERSON CITY CLOUDY    66  56  70 E13       29.73S
ROLLA          CLOUDY    68  58  70 SE13      29.73F
SEDALIA        CLOUDY    64  57  78 E13       29.69F
WHITEMAN AFB   SUNNY     65  65  99 E12       29.65F
WARRENSBURG    MOSUNNY   64  55  72 E12       29.65F
OSAGE BEACH    LGT RAIN  69  61  75 SE10      29.73R

$$
MOZ051-052-059>065-300000-
...EAST CENTRAL MISSOURI...

CITY           SKY/WX    TMP DP  RH WIND       PRES   REMARKS
ST LOUIS INTL  CLOUDY    66  54  65 E14       29.84R
SPIRIT OF STL  CLOUDY    66  57  72 E9        29.81S
ST CHARLES     PTSUNNY   62  56  80 E14       29.84R

$$
MOZ072>076-082>087-097>100-106>115-300000-
...SOUTH CENTRAL AND SOUTHEAST MISSOURI...

CITY           SKY/WX    TMP DP  RH WIND       PRES   REMARKS
CAPE GIRARDEAU PTSUNNY   71  60  68 E8        29.82F
FARMINGTON     CLOUDY    69  60  73 SE14      29.82F
POPLAR BLUFF   CLOUDY    74  63  68 SE6       29.79F
WEST PLAINS    CLOUDY    73  61  65 SE15G24   29.75F

$$



USA.gov is the U.S. government's official web portal to all federal, state and local government web resources and services.